Time,TemperatureF,DewpointF,PressureIn,WindDirection,WindDirectionDegrees,WindSpeedMPH,WindSpeedGustMPH,Humidity,HourlyPrecipIn,Conditions,Clouds,dailyrainin,SoftwareType,DateUTC
2013-05-04 00:01:00,56.8,28.8,30.33,SW,218,1.0,8.1,34,0.00,,,-99.99,FreeWX-Wi 1.01,2013-05-04 04:01:00,
2013-05-04 00:06:00,57.2,28.4,30.33,SSW,211,2.0,8.3,33,0.00,,,-99.99,FreeWX-Wi 1.01,2013-05-04 04:06:00,
2013-05-04 00:11:00,57.4,28.6,30.33,SSW,197,3.0,8.7,33,0.00,,,-99.99,FreeWX-Wi 1.01,2013-05-04 04:11:00,
2013-05-04 00:16:00,57.4,28.6,30.33,South,179,4.0,8.3,33,0.00,,,-99.99,FreeWX-Wi 1.01,2013-05-04 04:16:00,
2013-05-04 00:21:00,57.6,28.8,30.33,South,170,4.0,7.6,33,0.00,,,-99.99,FreeWX-Wi 1.01,2013-05-04 04:21:00,
2013-05-04 00:26:00,57.6,28.8,30.33,SSE,164,5.0,9.2,33,0.00,,,-99.99,FreeWX-Wi 1.01,2013-05-04 04:26:00,
2013-05-04 00:31:00,57.6,27.9,30.33,SSE,159,6.0,8.3,32,0.00,,,-99.99,FreeWX-Wi 1.01,2013-05-04 04:31:00,
2013-05-04 00:36:00,57.4,27.9,30.33,SSE,158,6.0,10.1,32,0.00,,,-99.99,FreeWX-Wi 1.01,2013-05-04 04:36:00,
2013-05-04 00:41:00,57.6,27.9,30.33,SSE,159,6.0,8.7,32,0.00,,,-99.99,FreeWX-Wi 1.01,2013-05-04 04:41:00,
2013-05-04 00:46:00,57.6,27.1,30.33,SSE,160,6.0,8.1,31,0.00,,,-99.99,FreeWX-Wi 1.01,2013-05-04 04:46:00,
2013-05-04 00:51:00,57.6,27.9,30.33,SSE,160,6.0,8.3,32,0.00,,,-99.99,FreeWX-Wi 1.01,2013-05-04 04:51:00,
2013-05-04 00:56:00,57.2,27.7,30.33,SSE,160,6.0,8.3,32,0.00,,,-99.99,FreeWX-Wi 1.01,2013-05-04 04:56:00,
2013-05-04 01:01:00,57.2,27.7,30.33,SSE,162,6.0,8.7,32,0.00,,,-99.99,FreeWX-Wi 1.01,2013-05-04 05:01:00,
2013-05-04 01:06:00,57.0,28.2,30.30,SSE,163,6.0,8.7,33,0.00,,,-99.99,FreeWX-Wi 1.01,2013-05-04 05:06:00,
2013-05-04 01:11:00,57.0,28.2,30.30,SSE,163,5.0,8.1,33,0.00,,,-99.99,FreeWX-Wi 1.01,2013-05-04 05:11:00,
2013-05-04 01:16:00,57.0,27.5,30.30,SSE,165,5.0,7.6,32,0.00,,,-99.99,FreeWX-Wi 1.01,2013-05-04 05:16:00,
2013-05-04 01:21:00,57.2,27.7,30.30,SSE,168,5.0,6.3,32,0.00,,,-99.99,FreeWX-Wi 1.01,2013-05-04 05:21:00,
2013-05-04 01:26:00,57.2,27.7,30.30,South,170,5.0,8.1,32,0.00,,,-99.99,FreeWX-Wi 1.01,2013-05-04 05:26:00,
2013-05-04 01:31:00,57.4,28.6,30.30,South,170,4.0,8.3,33,0.00,,,-99.99,FreeWX-Wi 1.01,2013-05-04 05:31:00,
2013-05-04 01:36:00,57.2,28.4,30.30,South,172,4.0,6.7,33,0.00,,,-99.99,FreeWX-Wi 1.01,2013-05-04 05:36:00,
2013-05-04 01:41:00,57.0,28.2,30.30,South,176,4.0,6.7,33,0.00,,,-99.99,FreeWX-Wi 1.01,2013-05-04 05:41:00,
2013-05-04 01:46:00,56.8,28.8,30.30,South,177,4.0,5.8,34,0.00,,,-99.99,FreeWX-Wi 1.01,2013-05-04 05:46:00,
2013-05-04 01:51:00,56.7,28.6,30.30,South,176,4.0,4.9,34,0.00,,,-99.99,FreeWX-Wi 1.01,2013-05-04 05:51:00,
2013-05-04 01:56:00,56.5,29.1,30.30,South,176,4.0,6.3,35,0.00,,,-99.99,FreeWX-Wi 1.01,2013-05-04 05:56:00,
2013-05-04 02:01:00,56.3,28.9,30.30,South,178,4.0,6.3,35,0.00,,,-99.99,FreeWX-Wi 1.01,2013-05-04 06:01:00,
2013-05-04 02:06:00,56.3,28.9,30.30,South,178,4.0,8.7,35,0.00,,,-99.99,FreeWX-Wi 1.01,2013-05-04 06:06:00,
2013-05-04 02:11:00,56.3,28.9,30.30,South,175,4.0,8.7,35,0.00,,,-99.99,FreeWX-Wi 1.01,2013-05-04 06:11:00,
2013-05-04 02:16:00,56.1,28.8,30.30,South,177,4.0,6.3,35,0.00,,,-99.99,FreeWX-Wi 1.01,2013-05-04 06:16:00,
2013-05-04 02:21:00,55.8,28.6,30.30,South,178,4.0,7.6,35,0.00,,,-99.99,FreeWX-Wi 1.01,2013-05-04 06:21:00,
2013-05-04 02:26:00,55.9,28.8,30.30,South,177,4.0,8.3,35,0.00,,,-99.99,FreeWX-Wi 1.01,2013-05-04 06:26:00,
2013-05-04 02:31:00,55.9,28.8,30.30,South,177,4.0,6.3,35,0.00,,,-99.99,FreeWX-Wi 1.01,2013-05-04 06:31:00,
2013-05-04 02:36:00,55.9,28.8,30.30,South,178,4.0,7.6,35,0.00,,,-99.99,FreeWX-Wi 1.01,2013-05-04 06:36:00,
2013-05-04 02:41:00,55.9,28.8,30.30,South,177,4.0,5.8,35,0.00,,,-99.99,FreeWX-Wi 1.01,2013-05-04 06:41:00,
2013-05-04 02:46:00,55.8,28.6,30.30,South,176,4.0,6.3,35,0.00,,,-99.99,FreeWX-Wi 1.01,2013-05-04 06:46:00,
2013-05-04 02:51:00,55.6,28.4,30.30,South,173,4.0,5.8,35,0.00,,,-99.99,FreeWX-Wi 1.01,2013-05-04 06:51:00,
2013-05-04 02:56:00,55.4,28.9,30.30,South,172,4.0,6.3,36,0.00,,,-99.99,FreeWX-Wi 1.01,2013-05-04 06:56:00,
2013-05-04 03:01:00,55.2,28.8,30.30,South,171,4.0,6.3,36,0.00,,,-99.99,FreeWX-Wi 1.01,2013-05-04 07:01:00,
2013-05-04 03:06:00,55.2,28.8,30.30,South,173,4.0,6.3,36,0.00,,,-99.99,FreeWX-Wi 1.01,2013-05-04 07:06:00,
2013-05-04 03:11:00,55.0,28.6,30.30,South,170,4.0,7.6,36,0.00,,,-99.99,FreeWX-Wi 1.01,2013-05-04 07:11:00,
2013-05-04 03:16:00,54.9,29.1,30.30,South,170,4.0,8.3,37,0.00,,,-99.99,FreeWX-Wi 1.01,2013-05-04 07:16:00,
2013-05-04 03:21:00,54.7,28.9,30.30,South,170,4.0,10.1,37,0.00,,,-99.99,FreeWX-Wi 1.01,2013-05-04 07:21:00,
2013-05-04 03:26:00,54.7,28.9,30.30,South,169,5.0,8.1,37,0.00,,,-99.99,FreeWX-Wi 1.01,2013-05-04 07:26:00,
2013-05-04 03:31:00,54.7,28.9,30.30,SSE,168,5.0,7.6,37,0.00,,,-99.99,FreeWX-Wi 1.01,2013-05-04 07:31:00,
2013-05-04 03:36:00,54.9,29.1,30.30,SSE,165,5.0,8.3,37,0.00,,,-99.99,FreeWX-Wi 1.01,2013-05-04 07:36:00,
2013-05-04 03:41:00,54.5,28.8,30.30,SSE,166,5.0,8.1,37,0.00,,,-99.99,FreeWX-Wi 1.01,2013-05-04 07:41:00,
2013-05-04 03:46:00,54.5,29.5,30.30,SSE,166,5.0,7.6,38,0.00,,,-99.99,FreeWX-Wi 1.01,2013-05-04 07:46:00,
2013-05-04 03:51:00,54.3,29.3,30.30,SSE,168,5.0,8.7,38,0.00,,,-99.99,FreeWX-Wi 1.01,2013-05-04 07:51:00,
2013-05-04 03:56:00,54.3,29.3,30.30,SSE,167,5.0,7.6,38,0.00,,,-99.99,FreeWX-Wi 1.01,2013-05-04 07:56:00,
2013-05-04 04:01:00,54.3,29.3,30.30,SSE,167,5.0,5.8,38,0.00,,,-99.99,FreeWX-Wi 1.01,2013-05-04 08:01:00,
2013-05-04 04:06:00,54.3,29.3,30.30,SSE,165,5.0,6.3,38,0.00,,,-99.99,FreeWX-Wi 1.01,2013-05-04 08:06:00,
2013-05-04 04:11:00,54.1,29.1,30.30,SSE,165,5.0,7.6,38,0.00,,,-99.99,FreeWX-Wi 1.01,2013-05-04 08:11:00,
2013-05-04 04:16:00,54.1,29.7,30.30,SSE,164,4.0,8.3,39,0.00,,,-99.99,FreeWX-Wi 1.01,2013-05-04 08:16:00,
2013-05-04 04:21:00,54.0,28.9,30.30,SSE,166,4.0,6.3,38,0.00,,,-99.99,FreeWX-Wi 1.01,2013-05-04 08:21:00,
2013-05-04 04:26:00,53.8,29.5,30.30,South,169,4.0,5.8,39,0.00,,,-99.99,FreeWX-Wi 1.01,2013-05-04 08:26:00,
2013-05-04 04:31:00,53.4,29.7,30.30,South,171,4.0,5.4,40,0.00,,,-99.99,FreeWX-Wi 1.01,2013-05-04 08:31:00,
2013-05-04 04:36:00,53.2,29.5,30.30,South,175,3.0,5.8,40,0.00,,,-99.99,FreeWX-Wi 1.01,2013-05-04 08:36:00,
2013-05-04 04:41:00,52.9,29.8,30.30,South,179,3.0,5.4,41,0.00,,,-99.99,FreeWX-Wi 1.01,2013-05-04 08:41:00,
2013-05-04 04:46:00,52.2,29.8,30.30,South,177,2.0,4.9,42,0.00,,,-99.99,FreeWX-Wi 1.01,2013-05-04 08:46:00,
2013-05-04 04:51:00,52.0,30.2,30.30,South,179,2.0,5.4,43,0.00,,,-99.99,FreeWX-Wi 1.01,2013-05-04 08:51:00,
2013-05-04 04:56:00,52.0,30.2,30.30,South,177,2.0,4.9,43,0.00,,,-99.99,FreeWX-Wi 1.01,2013-05-04 08:56:00,
2013-05-04 05:01:00,52.2,29.8,30.30,South,176,2.0,6.3,42,0.00,,,-99.99,FreeWX-Wi 1.01,2013-05-04 09:01:00,
2013-05-04 05:06:00,52.5,29.5,30.30,South,171,3.0,6.3,41,0.00,,,-99.99,FreeWX-Wi 1.01,2013-05-04 09:06:00,
2013-05-04 05:11:00,52.7,29.7,30.30,South,171,3.0,6.3,41,0.00,,,-99.99,FreeWX-Wi 1.01,2013-05-04 09:11:00,
2013-05-04 05:16:00,52.7,29.7,30.30,South,174,3.0,6.3,41,0.00,,,-99.99,FreeWX-Wi 1.01,2013-05-04 09:16:00,
2013-05-04 05:21:00,52.5,29.5,30.30,South,175,3.0,3.6,41,0.00,,,-99.99,FreeWX-Wi 1.01,2013-05-04 09:21:00,
2013-05-04 05:26:00,52.2,30.4,30.30,South,176,2.0,4.0,43,0.00,,,-99.99,FreeWX-Wi 1.01,2013-05-04 09:26:00,
2013-05-04 05:31:00,51.6,30.4,30.30,South,176,2.0,4.0,44,0.00,,,-99.99,FreeWX-Wi 1.01,2013-05-04 09:31:00,
2013-05-04 05:36:00,51.4,31.3,30.30,South,183,2.0,5.4,46,0.00,,,-99.99,FreeWX-Wi 1.01,2013-05-04 09:36:00,
2013-05-04 05:41:00,51.1,31.1,30.30,South,182,1.0,4.0,46,0.00,,,-99.99,FreeWX-Wi 1.01,2013-05-04 09:41:00,
2013-05-04 05:46:00,50.9,31.5,30.30,South,178,1.0,6.3,47,0.00,,,-99.99,FreeWX-Wi 1.01,2013-05-04 09:46:00,
2013-05-04 05:51:00,51.3,31.3,30.30,South,177,2.0,6.3,46,0.00,,,-99.99,FreeWX-Wi 1.01,2013-05-04 09:51:00,
2013-05-04 05:56:00,51.8,30.6,30.30,South,179,2.0,7.6,44,0.00,,,-99.99,FreeWX-Wi 1.01,2013-05-04 09:56:00,
2013-05-04 06:01:00,52.3,30.0,30.30,South,178,3.0,8.1,42,0.00,,,-99.99,FreeWX-Wi 1.01,2013-05-04 10:01:00,
2013-05-04 06:06:00,53.1,30.0,30.30,South,175,4.0,8.1,41,0.00,,,-99.99,FreeWX-Wi 1.01,2013-05-04 10:06:00,
2013-05-04 06:11:00,53.6,29.8,30.30,South,175,4.0,5.8,40,0.00,,,-99.99,FreeWX-Wi 1.01,2013-05-04 10:11:00,
2013-05-04 06:16:00,54.1,29.7,30.30,South,175,4.0,6.3,39,0.00,,,-99.99,FreeWX-Wi 1.01,2013-05-04 10:16:00,
2013-05-04 06:21:00,54.7,29.7,30.30,South,177,4.0,6.3,38,0.00,,,-99.99,FreeWX-Wi 1.01,2013-05-04 10:21:00,
2013-05-04 06:26:00,55.2,29.5,30.30,South,178,4.0,8.1,37,0.00,,,-99.99,FreeWX-Wi 1.01,2013-05-04 10:26:00,
2013-05-04 06:31:00,55.8,29.8,30.30,South,181,4.0,6.3,37,0.00,,,-99.99,FreeWX-Wi 1.01,2013-05-04 10:31:00,
2013-05-04 06:36:00,56.1,29.5,30.30,South,181,4.0,5.8,36,0.00,,,-99.99,FreeWX-Wi 1.01,2013-05-04 10:36:00,
2013-05-04 06:41:00,56.7,30.0,30.30,South,186,4.0,8.1,36,0.00,,,-99.99,FreeWX-Wi 1.01,2013-05-04 10:41:00,
2013-05-04 06:46:00,57.0,30.4,30.30,South,189,4.0,6.3,36,0.00,,,-99.99,FreeWX-Wi 1.01,2013-05-04 10:46:00,
2013-05-04 06:51:00,57.6,30.7,30.33,South,190,3.0,6.3,36,0.00,,,-99.99,FreeWX-Wi 1.01,2013-05-04 10:51:00,
2013-05-04 06:56:00,58.1,31.3,30.33,South,187,2.0,4.0,36,0.00,,,-99.99,FreeWX-Wi 1.01,2013-05-04 10:56:00,
2013-05-04 07:01:00,58.1,30.6,30.33,South,176,2.0,3.1,35,0.00,,,-99.99,FreeWX-Wi 1.01,2013-05-04 11:01:00,
2013-05-04 07:06:00,58.3,32.2,30.33,SSE,155,1.0,2.7,37,0.00,,,-99.99,FreeWX-Wi 1.01,2013-05-04 11:06:00,
2013-05-04 07:11:00,58.6,33.1,30.33,SE,127,1.0,3.1,38,0.00,,,-99.99,FreeWX-Wi 1.01,2013-05-04 11:11:00,
2013-05-04 07:16:00,58.8,32.5,30.33,North,-999,0.0,2.2,37,0.00,,,-99.99,FreeWX-Wi 1.01,2013-05-04 11:16:00,
2013-05-04 07:21:00,59.2,31.5,30.33,North,-999,0.0,0.0,35,0.00,,,-99.99,FreeWX-Wi 1.01,2013-05-04 11:21:00,
2013-05-04 07:27:00,59.0,31.5,30.33,North,-999,0.0,0.0,35,0.00,,,-99.99,FreeWX-Wi 1.01,2013-05-04 11:27:00,
2013-05-04 07:32:00,59.0,31.5,30.33,North,-999,0.0,0.0,35,0.00,,,-99.99,FreeWX-Wi 1.01,2013-05-04 11:32:00,
2013-05-04 07:37:00,59.5,31.8,30.33,North,-999,0.0,0.0,35,0.00,,,-99.99,FreeWX-Wi 1.01,2013-05-04 11:37:00,
2013-05-04 07:42:00,59.7,32.0,30.33,North,-999,0.0,4.0,35,0.00,,,-99.99,FreeWX-Wi 1.01,2013-05-04 11:42:00,
2013-05-04 07:47:00,58.8,32.0,30.33,North,-999,0.0,0.0,36,0.00,,,-99.99,FreeWX-Wi 1.01,2013-05-04 11:47:00,
2013-05-04 07:52:00,57.9,32.5,30.33,North,-999,0.0,3.6,38,0.00,,,-99.99,FreeWX-Wi 1.01,2013-05-04 11:52:00,
2013-05-04 07:57:00,57.6,32.7,30.33,North,-999,0.0,4.0,39,0.00,,,-99.99,FreeWX-Wi 1.01,2013-05-04 11:57:00,
2013-05-04 08:02:00,57.6,32.7,30.33,WNW,296,1.0,4.9,39,0.00,,,-99.99,FreeWX-Wi 1.01,2013-05-04 12:02:00,
2013-05-04 08:07:00,57.6,33.4,30.33,WNW,301,2.0,4.5,40,0.00,,,-99.99,FreeWX-Wi 1.01,2013-05-04 12:07:00,
2013-05-04 08:12:00,57.9,34.3,30.33,WNW,298,2.0,4.0,41,0.00,,,-99.99,FreeWX-Wi 1.01,2013-05-04 12:12:00,
2013-05-04 08:17:00,57.6,33.4,30.33,WNW,297,3.0,4.9,40,0.00,,,-99.99,FreeWX-Wi 1.01,2013-05-04 12:17:00,
2013-05-04 08:22:00,57.6,34.0,30.33,WNW,294,3.0,5.8,41,0.00,,,-99.99,FreeWX-Wi 1.01,2013-05-04 12:22:00,
2013-05-04 08:27:00,57.9,34.3,30.33,WNW,291,3.0,4.9,41,0.00,,,-99.99,FreeWX-Wi 1.01,2013-05-04 12:27:00,
2013-05-04 08:32:00,58.5,34.2,30.33,WNW,288,3.0,5.8,40,0.00,,,-99.99,FreeWX-Wi 1.01,2013-05-04 12:32:00,
2013-05-04 08:37:00,58.8,34.0,30.33,WNW,287,3.0,5.8,39,0.00,,,-99.99,FreeWX-Wi 1.01,2013-05-04 12:37:00,
2013-05-04 08:42:00,58.8,34.5,30.33,WNW,283,4.0,6.3,40,0.00,,,-99.99,FreeWX-Wi 1.01,2013-05-04 12:42:00,
2013-05-04 08:47:00,59.0,33.4,30.33,West,280,4.0,6.3,38,0.00,,,-99.99,FreeWX-Wi 1.01,2013-05-04 12:47:00,
2013-05-04 08:52:00,59.2,33.6,30.33,West,279,4.0,6.3,38,0.00,,,-99.99,FreeWX-Wi 1.01,2013-05-04 12:52:00,
2013-05-04 08:57:00,59.2,32.9,30.33,West,279,4.0,7.6,37,0.00,,,-99.99,FreeWX-Wi 1.01,2013-05-04 12:57:00,
2013-05-04 09:02:00,59.4,34.3,30.33,West,280,4.0,6.3,39,0.00,,,-99.99,FreeWX-Wi 1.01,2013-05-04 13:02:00,
2013-05-04 09:07:00,59.5,34.0,30.33,West,277,4.0,6.3,38,0.00,,,-99.99,FreeWX-Wi 1.01,2013-05-04 13:07:00,
2013-05-04 09:12:00,59.5,33.3,30.33,West,277,5.0,8.1,37,0.00,,,-99.99,FreeWX-Wi 1.01,2013-05-04 13:12:00,
2013-05-04 09:17:00,59.7,33.4,30.33,West,277,5.0,7.6,37,0.00,,,-99.99,FreeWX-Wi 1.01,2013-05-04 13:17:00,
2013-05-04 09:22:00,59.9,34.2,30.33,West,277,5.0,8.1,38,0.00,,,-99.99,FreeWX-Wi 1.01,2013-05-04 13:22:00,
2013-05-04 09:27:00,60.1,33.8,30.33,West,276,5.0,6.3,37,0.00,,,-99.99,FreeWX-Wi 1.01,2013-05-04 13:27:00,
2013-05-04 09:32:00,60.4,34.7,30.33,West,274,5.0,7.6,38,0.00,,,-99.99,FreeWX-Wi 1.01,2013-05-04 13:32:00,
2013-05-04 09:37:00,60.4,34.0,30.33,West,275,5.0,6.3,37,0.00,,,-99.99,FreeWX-Wi 1.01,2013-05-04 13:37:00,
2013-05-04 09:42:00,60.3,34.5,30.33,West,276,5.0,6.7,38,0.00,,,-99.99,FreeWX-Wi 1.01,2013-05-04 13:42:00,
2013-05-04 09:47:00,61.0,34.5,30.33,West,275,5.0,6.3,37,0.00,,,-99.99,FreeWX-Wi 1.01,2013-05-04 13:47:00,
2013-05-04 09:52:00,61.7,35.2,30.33,West,275,5.0,5.8,37,0.00,,,-99.99,FreeWX-Wi 1.01,2013-05-04 13:52:00,
2013-05-04 09:57:00,61.5,34.3,30.33,West,276,4.0,5.4,36,0.00,,,-99.99,FreeWX-Wi 1.01,2013-05-04 13:57:00,
2013-05-04 10:02:00,60.8,33.6,30.33,West,277,4.0,6.3,36,0.00,,,-99.99,FreeWX-Wi 1.01,2013-05-04 14:02:00,
2013-05-04 10:07:00,60.8,34.3,30.33,West,277,4.0,7.6,37,0.00,,,-99.99,FreeWX-Wi 1.01,2013-05-04 14:07:00,
2013-05-04 10:12:00,60.4,34.7,30.33,West,278,4.0,6.3,38,0.00,,,-99.99,FreeWX-Wi 1.01,2013-05-04 14:12:00,
2013-05-04 10:17:00,60.6,34.9,30.33,West,278,4.0,7.6,38,0.00,,,-99.99,FreeWX-Wi 1.01,2013-05-04 14:17:00,
2013-05-04 10:22:00,61.2,34.0,30.33,West,278,4.0,6.3,36,0.00,,,-99.99,FreeWX-Wi 1.01,2013-05-04 14:22:00,
2013-05-04 10:27:00,61.2,36.0,30.33,West,278,4.0,6.3,39,0.00,,,-99.99,FreeWX-Wi 1.01,2013-05-04 14:27:00,
2013-05-04 10:32:00,62.1,35.4,30.33,West,277,4.0,6.7,37,0.00,,,-99.99,FreeWX-Wi 1.01,2013-05-04 14:32:00,
2013-05-04 10:37:00,62.6,34.5,30.33,West,277,4.0,6.3,35,0.00,,,-99.99,FreeWX-Wi 1.01,2013-05-04 14:37:00,
2013-05-04 10:42:00,62.2,34.9,30.33,West,277,4.0,6.3,36,0.00,,,-99.99,FreeWX-Wi 1.01,2013-05-04 14:42:00,
2013-05-04 10:47:00,62.8,34.7,30.33,West,277,4.0,6.3,35,0.00,,,-99.99,FreeWX-Wi 1.01,2013-05-04 14:47:00,
2013-05-04 10:52:00,63.7,34.7,30.33,West,274,4.0,7.6,34,0.00,,,-99.99,FreeWX-Wi 1.01,2013-05-04 14:52:00,
2013-05-04 10:57:00,64.4,34.0,30.33,West,274,5.0,5.8,32,0.00,,,-99.99,FreeWX-Wi 1.01,2013-05-04 14:57:00,
2013-05-04 11:02:00,64.9,35.1,30.33,West,273,5.0,7.6,33,0.00,,,-99.99,FreeWX-Wi 1.01,2013-05-04 15:02:00,
2013-05-04 11:07:00,65.1,31.3,30.30,West,271,5.0,7.6,28,0.00,,,-99.99,FreeWX-Wi 1.01,2013-05-04 15:07:00,
2013-05-04 11:12:00,65.5,36.3,30.30,West,271,5.0,6.3,34,0.00,,,-99.99,FreeWX-Wi 1.01,2013-05-04 15:12:00,
2013-05-04 11:17:00,65.5,35.6,30.30,West,272,5.0,6.3,33,0.00,,,-99.99,FreeWX-Wi 1.01,2013-05-04 15:17:00,
2013-05-04 11:22:00,64.9,36.7,30.30,West,277,4.0,4.9,35,0.00,,,-99.99,FreeWX-Wi 1.01,2013-05-04 15:22:00,
2013-05-04 11:27:00,64.9,35.1,30.30,West,278,4.0,6.3,33,0.00,,,-99.99,FreeWX-Wi 1.01,2013-05-04 15:27:00,
2013-05-04 11:32:00,64.8,35.1,30.30,West,281,4.0,4.9,33,0.00,,,-99.99,FreeWX-Wi 1.01,2013-05-04 15:32:00,
2013-05-04 11:37:00,64.2,35.2,30.30,WNW,285,4.0,5.4,34,0.00,,,-99.99,FreeWX-Wi 1.01,2013-05-04 15:37:00,
2013-05-04 11:42:00,64.4,34.7,30.30,WNW,286,4.0,6.3,33,0.00,,,-99.99,FreeWX-Wi 1.01,2013-05-04 15:42:00,
2013-05-04 11:47:00,65.1,36.1,30.30,WNW,286,4.0,5.8,34,0.00,,,-99.99,FreeWX-Wi 1.01,2013-05-04 15:47:00,
2013-05-04 11:52:00,65.5,31.5,30.30,WNW,286,4.0,4.9,28,0.00,,,-99.99,FreeWX-Wi 1.01,2013-05-04 15:52:00,
2013-05-04 11:57:00,66.0,31.1,30.30,WNW,287,4.0,5.4,27,0.00,,,-99.99,FreeWX-Wi 1.01,2013-05-04 15:57:00,
2013-05-04 12:02:00,66.0,32.0,30.30,WNW,287,4.0,5.4,28,0.00,,,-99.99,FreeWX-Wi 1.01,2013-05-04 16:02:00,
2013-05-04 12:07:00,66.4,28.6,30.30,WNW,287,4.0,4.9,24,0.00,,,-99.99,FreeWX-Wi 1.01,2013-05-04 16:07:00,
2013-05-04 12:12:00,66.6,29.7,30.30,WNW,290,3.0,4.0,25,0.00,,,-99.99,FreeWX-Wi 1.01,2013-05-04 16:12:00,
2013-05-04 12:17:00,66.6,30.6,30.30,WNW,291,3.0,4.9,26,0.00,,,-99.99,FreeWX-Wi 1.01,2013-05-04 16:17:00,
2013-05-04 12:22:00,66.6,28.6,30.30,WNW,292,3.0,5.4,24,0.00,,,-99.99,FreeWX-Wi 1.01,2013-05-04 16:22:00,
2013-05-04 12:27:00,66.7,27.7,30.30,WNW,291,3.0,4.9,23,0.00,,,-99.99,FreeWX-Wi 1.01,2013-05-04 16:27:00,
2013-05-04 12:32:00,66.9,27.9,30.30,WNW,288,3.0,4.9,23,0.00,,,-99.99,FreeWX-Wi 1.01,2013-05-04 16:32:00,
2013-05-04 12:37:00,66.9,27.9,30.27,WNW,285,3.0,5.4,23,0.00,,,-99.99,FreeWX-Wi 1.01,2013-05-04 16:37:00,
2013-05-04 12:42:00,66.9,27.9,30.27,WNW,283,3.0,5.4,23,0.00,,,-99.99,FreeWX-Wi 1.01,2013-05-04 16:42:00,
2013-05-04 12:47:00,66.9,28.9,30.27,WNW,285,3.0,5.4,24,0.00,,,-99.99,FreeWX-Wi 1.01,2013-05-04 16:47:00,
2013-05-04 12:52:00,66.7,28.8,30.27,WNW,286,3.0,4.9,24,0.00,,,-99.99,FreeWX-Wi 1.01,2013-05-04 16:52:00,
2013-05-04 12:57:00,66.9,27.9,30.27,WNW,290,3.0,4.0,23,0.00,,,-99.99,FreeWX-Wi 1.01,2013-05-04 16:57:00,
2013-05-04 13:02:00,67.1,29.1,30.27,WNW,292,3.0,4.0,24,0.00,,,-99.99,FreeWX-Wi 1.01,2013-05-04 17:02:00,
2013-05-04 13:07:00,67.1,29.1,30.27,WNW,293,3.0,4.9,24,0.00,,,-99.99,FreeWX-Wi 1.01,2013-05-04 17:07:00,
2013-05-04 13:12:00,67.5,28.4,30.27,WNW,292,3.0,3.6,23,0.00,,,-99.99,FreeWX-Wi 1.01,2013-05-04 17:12:00,
2013-05-04 13:17:00,68.0,28.8,30.27,WNW,293,3.0,4.0,23,0.00,,,-99.99,FreeWX-Wi 1.01,2013-05-04 17:17:00,
2013-05-04 13:22:00,68.4,29.1,30.27,WNW,295,3.0,4.0,23,0.00,,,-99.99,FreeWX-Wi 1.01,2013-05-04 17:22:00,
2013-05-04 13:27:00,68.9,29.7,30.27,WNW,298,2.0,4.0,23,0.00,,,-99.99,FreeWX-Wi 1.01,2013-05-04 17:27:00,
2013-05-04 13:32:00,69.4,30.0,30.27,WNW,302,2.0,6.3,23,0.00,,,-99.99,FreeWX-Wi 1.01,2013-05-04 17:32:00,
2013-05-04 13:37:00,70.0,30.6,30.27,NW,306,2.0,5.4,23,0.00,,,-99.99,FreeWX-Wi 1.01,2013-05-04 17:37:00,
2013-05-04 13:42:00,70.5,30.9,30.27,NW,316,2.0,4.9,23,0.00,,,-99.99,FreeWX-Wi 1.01,2013-05-04 17:42:00,
2013-05-04 13:47:00,70.3,29.7,30.27,NW,322,2.0,4.0,22,0.00,,,-99.99,FreeWX-Wi 1.01,2013-05-04 17:47:00,
2013-05-04 13:52:00,70.5,30.9,30.24,NW,322,2.0,4.9,23,0.00,,,-99.99,FreeWX-Wi 1.01,2013-05-04 17:52:00,
2013-05-04 13:57:00,70.9,30.2,30.24,NW,320,2.0,5.4,22,0.00,,,-99.99,FreeWX-Wi 1.01,2013-05-04 17:57:00,
2013-05-04 14:02:00,70.7,30.0,30.24,NW,314,2.0,4.9,22,0.00,,,-99.99,FreeWX-Wi 1.01,2013-05-04 18:02:00,
2013-05-04 14:07:00,70.3,30.7,30.24,NW,309,2.0,5.8,23,0.00,,,-99.99,FreeWX-Wi 1.01,2013-05-04 18:07:00,
2013-05-04 14:12:00,70.0,30.6,30.24,WNW,298,2.0,5.8,23,0.00,,,-99.99,FreeWX-Wi 1.01,2013-05-04 18:12:00,
2013-05-04 14:17:00,69.6,30.2,30.24,WNW,292,3.0,5.8,23,0.00,,,-99.99,FreeWX-Wi 1.01,2013-05-04 18:17:00,
2013-05-04 14:22:00,69.8,29.3,30.24,WNW,289,3.0,6.7,22,0.00,,,-99.99,FreeWX-Wi 1.01,2013-05-04 18:22:00,
2013-05-04 14:27:00,70.2,29.5,30.24,WNW,283,3.0,6.3,22,0.00,,,-99.99,FreeWX-Wi 1.01,2013-05-04 18:27:00,
2013-05-04 14:32:00,70.5,30.9,30.24,WNW,282,4.0,6.3,23,0.00,,,-99.99,FreeWX-Wi 1.01,2013-05-04 18:32:00,
2013-05-04 14:37:00,70.5,29.8,30.24,WNW,282,4.0,5.8,22,0.00,,,-99.99,FreeWX-Wi 1.01,2013-05-04 18:37:00,
2013-05-04 14:42:00,70.7,31.1,30.24,West,280,4.0,6.3,23,0.00,,,-99.99,FreeWX-Wi 1.01,2013-05-04 18:42:00,
2013-05-04 14:47:00,70.9,31.3,30.24,West,281,4.0,6.3,23,0.00,,,-99.99,FreeWX-Wi 1.01,2013-05-04 18:47:00,
2013-05-04 14:52:00,70.7,31.1,30.24,WNW,285,4.0,5.8,23,0.00,,,-99.99,FreeWX-Wi 1.01,2013-05-04 18:52:00,
2013-05-04 14:57:00,71.1,30.2,30.24,WNW,291,4.0,6.3,22,0.00,,,-99.99,FreeWX-Wi 1.01,2013-05-04 18:57:00,
2013-05-04 15:02:00,71.2,30.4,30.24,WNW,293,4.0,8.1,22,0.00,,,-99.99,FreeWX-Wi 1.01,2013-05-04 19:02:00,
2013-05-04 15:07:00,71.2,31.5,30.21,WNW,290,4.0,7.6,23,0.00,,,-99.99,FreeWX-Wi 1.01,2013-05-04 19:07:00,
2013-05-04 15:12:00,71.2,30.4,30.21,WNW,287,4.0,6.3,22,0.00,,,-99.99,FreeWX-Wi 1.01,2013-05-04 19:12:00,
2013-05-04 15:17:00,71.6,30.7,30.21,WNW,284,4.0,6.3,22,0.00,,,-99.99,FreeWX-Wi 1.01,2013-05-04 19:17:00,
2013-05-04 15:22:00,71.8,30.9,30.21,West,280,4.0,6.3,22,0.00,,,-99.99,FreeWX-Wi 1.01,2013-05-04 19:22:00,
2013-05-04 15:27:00,71.6,31.8,30.21,West,277,4.0,6.3,23,0.00,,,-99.99,FreeWX-Wi 1.01,2013-05-04 19:27:00,
2013-05-04 15:32:00,71.6,30.7,30.21,West,278,5.0,6.7,22,0.00,,,-99.99,FreeWX-Wi 1.01,2013-05-04 19:32:00,
2013-05-04 15:37:00,72.0,31.1,30.21,West,279,5.0,6.3,22,0.00,,,-99.99,FreeWX-Wi 1.01,2013-05-04 19:37:00,
2013-05-04 15:42:00,72.3,31.3,30.21,WNW,282,5.0,5.8,22,0.00,,,-99.99,FreeWX-Wi 1.01,2013-05-04 19:42:00,
2013-05-04 15:47:00,72.7,31.6,30.21,WNW,283,4.0,5.8,22,0.00,,,-99.99,FreeWX-Wi 1.01,2013-05-04 19:47:00,
2013-05-04 15:52:00,72.7,31.6,30.21,WNW,284,4.0,6.3,22,0.00,,,-99.99,FreeWX-Wi 1.01,2013-05-04 19:52:00,
2013-05-04 15:57:00,72.7,31.6,30.21,WNW,282,4.0,5.8,22,0.00,,,-99.99,FreeWX-Wi 1.01,2013-05-04 19:57:00,
2013-05-04 16:02:00,72.5,30.4,30.21,West,281,4.0,5.8,21,0.00,,,-99.99,FreeWX-Wi 1.01,2013-05-04 20:02:00,
2013-05-04 16:07:00,72.7,31.6,30.21,West,280,4.0,5.8,22,0.00,,,-99.99,FreeWX-Wi 1.01,2013-05-04 20:07:00,
2013-05-04 16:12:00,72.7,31.6,30.21,West,280,4.0,5.8,22,0.00,,,-99.99,FreeWX-Wi 1.01,2013-05-04 20:12:00,
2013-05-04 16:18:00,72.7,31.6,30.21,West,280,4.0,5.8,22,0.00,,,-99.99,FreeWX-Wi 1.01,2013-05-04 20:18:00,
2013-05-04 16:23:00,72.7,31.6,30.21,West,280,4.0,6.3,22,0.00,,,-99.99,FreeWX-Wi 1.01,2013-05-04 20:23:00,
2013-05-04 16:28:00,72.9,31.8,30.21,West,280,4.0,6.3,22,0.00,,,-99.99,FreeWX-Wi 1.01,2013-05-04 20:28:00,
2013-05-04 16:33:00,73.2,32.0,30.21,West,280,4.0,6.3,22,0.00,,,-99.99,FreeWX-Wi 1.01,2013-05-04 20:33:00,
2013-05-04 16:38:00,73.6,31.3,30.18,West,278,4.0,5.4,21,0.00,,,-99.99,FreeWX-Wi 1.01,2013-05-04 20:38:00,
2013-05-04 16:43:00,73.8,31.5,30.18,West,276,4.0,4.9,21,0.00,,,-99.99,FreeWX-Wi 1.01,2013-05-04 20:43:00,
2013-05-04 16:48:00,74.3,31.8,30.18,West,274,4.0,4.0,21,0.00,,,-99.99,FreeWX-Wi 1.01,2013-05-04 20:48:00,
2013-05-04 16:53:00,74.7,32.2,30.18,West,272,4.0,4.9,21,0.00,,,-99.99,FreeWX-Wi 1.01,2013-05-04 20:53:00,
2013-05-04 16:58:00,74.5,32.0,30.18,West,272,3.0,5.4,21,0.00,,,-99.99,FreeWX-Wi 1.01,2013-05-04 20:58:00,
2013-05-04 17:03:00,74.7,32.2,30.18,West,273,3.0,4.0,21,0.00,,,-99.99,FreeWX-Wi 1.01,2013-05-04 21:03:00,
2013-05-04 17:08:00,74.7,32.2,30.18,West,273,3.0,5.4,21,0.00,,,-99.99,FreeWX-Wi 1.01,2013-05-04 21:08:00,
2013-05-04 17:13:00,74.7,28.4,30.18,West,273,3.0,5.4,18,0.00,,,-99.99,FreeWX-Wi 1.01,2013-05-04 21:13:00,
2013-05-04 17:18:00,74.7,32.2,30.18,West,275,3.0,5.4,21,0.00,,,-99.99,FreeWX-Wi 1.01,2013-05-04 21:18:00,
2013-05-04 17:23:00,74.7,32.2,30.18,West,276,3.0,4.9,21,0.00,,,-99.99,FreeWX-Wi 1.01,2013-05-04 21:23:00,
2013-05-04 17:28:00,75.0,32.4,30.18,West,273,3.0,4.9,21,0.00,,,-99.99,FreeWX-Wi 1.01,2013-05-04 21:28:00,
2013-05-04 17:33:00,75.0,28.6,30.18,West,273,3.0,5.4,18,0.00,,,-99.99,FreeWX-Wi 1.01,2013-05-04 21:33:00,
2013-05-04 17:38:00,74.8,28.4,30.18,West,274,3.0,5.4,18,0.00,,,-99.99,FreeWX-Wi 1.01,2013-05-04 21:38:00,
2013-05-04 17:43:00,75.2,31.3,30.18,West,271,3.0,4.0,20,0.00,,,-99.99,FreeWX-Wi 1.01,2013-05-04 21:43:00,
2013-05-04 17:48:00,75.6,31.6,30.18,West,268,3.0,3.6,20,0.00,,,-99.99,FreeWX-Wi 1.01,2013-05-04 21:48:00,
2013-05-04 17:53:00,75.6,31.6,30.18,West,265,3.0,4.9,20,0.00,,,-99.99,FreeWX-Wi 1.01,2013-05-04 21:53:00,
2013-05-04 17:58:00,75.6,29.1,30.18,West,261,3.0,5.4,18,0.00,,,-99.99,FreeWX-Wi 1.01,2013-05-04 21:58:00,
2013-05-04 18:03:00,75.7,31.8,30.18,West,260,3.0,4.0,20,0.00,,,-99.99,FreeWX-Wi 1.01,2013-05-04 22:03:00,
2013-05-04 18:08:00,75.9,29.3,30.18,West,260,2.0,4.0,18,0.00,,,-99.99,FreeWX-Wi 1.01,2013-05-04 22:08:00,
2013-05-04 18:13:00,75.9,29.3,30.18,West,259,2.0,4.0,18,0.00,,,-99.99,FreeWX-Wi 1.01,2013-05-04 22:13:00,
2013-05-04 18:18:00,75.9,29.3,30.18,West,259,3.0,4.9,18,0.00,,,-99.99,FreeWX-Wi 1.01,2013-05-04 22:18:00,
2013-05-04 18:23:00,75.7,29.3,30.18,WSW,258,2.0,4.0,18,0.00,,,-99.99,FreeWX-Wi 1.01,2013-05-04 22:23:00,
2013-05-04 18:28:00,75.7,29.3,30.18,West,259,2.0,4.0,18,0.00,,,-99.99,FreeWX-Wi 1.01,2013-05-04 22:28:00,
2013-05-04 18:33:00,75.6,29.1,30.18,WSW,257,2.0,4.0,18,0.00,,,-99.99,FreeWX-Wi 1.01,2013-05-04 22:33:00,
2013-05-04 18:38:00,75.6,29.1,30.18,WSW,258,2.0,4.0,18,0.00,,,-99.99,FreeWX-Wi 1.01,2013-05-04 22:38:00,
2013-05-04 18:43:00,75.6,29.1,30.18,WSW,257,2.0,3.6,18,0.00,,,-99.99,FreeWX-Wi 1.01,2013-05-04 22:43:00,
2013-05-04 18:48:00,75.4,31.5,30.18,WSW,256,2.0,4.0,20,0.00,,,-99.99,FreeWX-Wi 1.01,2013-05-04 22:48:00,
2013-05-04 18:53:00,75.2,28.8,30.18,WSW,257,2.0,4.0,18,0.00,,,-99.99,FreeWX-Wi 1.01,2013-05-04 22:53:00,
2013-05-04 18:58:00,75.2,31.3,30.18,WSW,256,2.0,4.0,20,0.00,,,-99.99,FreeWX-Wi 1.01,2013-05-04 22:58:00,
2013-05-04 19:03:00,75.2,31.3,30.18,WSW,255,2.0,3.6,20,0.00,,,-99.99,FreeWX-Wi 1.01,2013-05-04 23:03:00,
2013-05-04 19:08:00,75.6,31.6,30.15,WSW,255,1.0,0.0,20,0.00,,,-99.99,FreeWX-Wi 1.01,2013-05-04 23:08:00,
2013-05-04 19:13:00,75.6,29.1,30.15,WSW,257,1.0,4.0,18,0.00,,,-99.99,FreeWX-Wi 1.01,2013-05-04 23:13:00,
2013-05-04 19:18:00,75.4,28.9,30.15,WSW,257,1.0,3.1,18,0.00,,,-99.99,FreeWX-Wi 1.01,2013-05-04 23:18:00,
2013-05-04 19:23:00,75.6,29.1,30.18,North,-999,0.0,0.0,18,0.00,,,-99.99,FreeWX-Wi 1.01,2013-05-04 23:23:00,
2013-05-04 19:28:00,75.6,29.1,30.18,North,-999,0.0,0.0,18,0.00,,,-99.99,FreeWX-Wi 1.01,2013-05-04 23:28:00,
2013-05-04 19:33:00,75.2,31.3,30.18,North,-999,0.0,0.0,20,0.00,,,-99.99,FreeWX-Wi 1.01,2013-05-04 23:33:00,
2013-05-04 19:38:00,74.7,32.2,30.18,North,-999,0.0,0.0,21,0.00,,,-99.99,FreeWX-Wi 1.01,2013-05-04 23:38:00,
2013-05-04 19:43:00,73.2,30.9,30.18,North,-999,0.0,0.0,21,0.00,,,-99.99,FreeWX-Wi 1.01,2013-05-04 23:43:00,
2013-05-04 19:48:00,71.6,29.7,30.18,North,-999,0.0,0.0,21,0.00,,,-99.99,FreeWX-Wi 1.01,2013-05-04 23:48:00,
2013-05-04 19:53:00,70.3,29.7,30.18,North,-999,0.0,0.0,22,0.00,,,-99.99,FreeWX-Wi 1.01,2013-05-04 23:53:00,
2013-05-04 19:58:00,69.6,29.1,30.18,North,-999,0.0,0.0,22,0.00,,,-99.99,FreeWX-Wi 1.01,2013-05-04 23:58:00,
2013-05-04 20:03:00,68.5,28.2,30.18,North,-999,0.0,0.0,22,0.00,,,-99.99,FreeWX-Wi 1.01,2013-05-05 00:03:00,
2013-05-04 20:08:00,68.0,27.7,30.18,North,-999,0.0,0.0,22,0.00,,,-99.99,FreeWX-Wi 1.01,2013-05-05 00:08:00,
2013-05-04 20:13:00,67.5,28.4,30.18,North,-999,0.0,0.0,23,0.00,,,-99.99,FreeWX-Wi 1.01,2013-05-05 00:13:00,
2013-05-04 20:18:00,67.5,28.4,30.18,North,-999,0.0,0.0,23,0.00,,,-99.99,FreeWX-Wi 1.01,2013-05-05 00:18:00,
2013-05-04 20:23:00,67.1,28.0,30.18,North,-999,0.0,0.0,23,0.00,,,-99.99,FreeWX-Wi 1.01,2013-05-05 00:23:00,
2013-05-04 20:28:00,66.6,27.7,30.18,North,-999,0.0,0.0,23,0.00,,,-99.99,FreeWX-Wi 1.01,2013-05-05 00:28:00,
2013-05-04 20:33:00,66.4,27.5,30.18,North,-999,0.0,2.7,23,0.00,,,-99.99,FreeWX-Wi 1.01,2013-05-05 00:33:00,
2013-05-04 20:38:00,66.2,27.3,30.18,North,-999,0.0,3.6,23,0.00,,,-99.99,FreeWX-Wi 1.01,2013-05-05 00:38:00,
2013-05-04 20:43:00,66.0,27.1,30.18,SSE,167,1.0,3.1,23,0.00,,,-99.99,FreeWX-Wi 1.01,2013-05-05 00:43:00,
2013-05-04 20:48:00,65.7,27.9,30.18,SSE,168,1.0,4.0,24,0.00,,,-99.99,FreeWX-Wi 1.01,2013-05-05 00:48:00,
2013-05-04 20:53:00,65.5,26.8,30.18,SSE,168,2.0,3.6,23,0.00,,,-99.99,FreeWX-Wi 1.01,2013-05-05 00:53:00,
2013-05-04 20:58:00,65.7,26.8,30.18,SSE,166,2.0,3.6,23,0.00,,,-99.99,FreeWX-Wi 1.01,2013-05-05 00:58:00,
2013-05-04 21:03:00,65.7,26.8,30.18,SSE,168,2.0,3.6,23,0.00,,,-99.99,FreeWX-Wi 1.01,2013-05-05 01:03:00,
2013-05-04 21:08:00,65.1,26.4,30.18,South,169,2.0,3.6,23,0.00,,,-99.99,FreeWX-Wi 1.01,2013-05-05 01:08:00,
2013-05-04 21:13:00,65.3,26.6,30.18,South,169,2.0,3.1,23,0.00,,,-99.99,FreeWX-Wi 1.01,2013-05-05 01:13:00,
2013-05-04 21:18:00,65.5,26.8,30.18,SSE,166,2.0,3.6,23,0.00,,,-99.99,FreeWX-Wi 1.01,2013-05-05 01:18:00,
2013-05-04 21:23:00,65.7,26.8,30.18,SSE,167,2.0,3.6,23,0.00,,,-99.99,FreeWX-Wi 1.01,2013-05-05 01:23:00,
2013-05-04 21:28:00,65.1,27.5,30.18,SSE,166,2.0,3.1,24,0.00,,,-99.99,FreeWX-Wi 1.01,2013-05-05 01:28:00,
2013-05-04 21:33:00,64.9,27.3,30.18,SSE,164,2.0,4.0,24,0.00,,,-99.99,FreeWX-Wi 1.01,2013-05-05 01:33:00,
2013-05-04 21:38:00,64.6,27.0,30.18,SSE,164,2.0,4.0,24,0.00,,,-99.99,FreeWX-Wi 1.01,2013-05-05 01:38:00,
2013-05-04 21:43:00,64.2,27.7,30.18,SSE,164,3.0,4.0,25,0.00,,,-99.99,FreeWX-Wi 1.01,2013-05-05 01:43:00,
2013-05-04 21:48:00,64.0,27.5,30.18,SSE,163,3.0,4.0,25,0.00,,,-99.99,FreeWX-Wi 1.01,2013-05-05 01:48:00,
2013-05-04 21:53:00,63.5,27.1,30.18,SSE,160,3.0,4.0,25,0.00,,,-99.99,FreeWX-Wi 1.01,2013-05-05 01:53:00,
2013-05-04 21:58:00,63.7,28.2,30.18,SSE,158,3.0,5.4,26,0.00,,,-99.99,FreeWX-Wi 1.01,2013-05-05 01:58:00,
2013-05-04 22:03:00,64.2,27.7,30.18,SSE,155,3.0,5.8,25,0.00,,,-99.99,FreeWX-Wi 1.01,2013-05-05 02:03:00,
2013-05-04 22:08:00,64.2,27.7,30.18,SSE,153,4.0,5.8,25,0.00,,,-99.99,FreeWX-Wi 1.01,2013-05-05 02:08:00,
2013-05-04 22:13:00,64.2,27.7,30.18,SSE,152,4.0,5.4,25,0.00,,,-99.99,FreeWX-Wi 1.01,2013-05-05 02:13:00,
2013-05-04 22:18:00,64.0,28.4,30.18,SSE,151,4.0,5.8,26,0.00,,,-99.99,FreeWX-Wi 1.01,2013-05-05 02:18:00,
2013-05-04 22:23:00,64.2,28.6,30.18,SSE,153,5.0,6.3,26,0.00,,,-99.99,FreeWX-Wi 1.01,2013-05-05 02:23:00,
2013-05-04 22:28:00,64.0,28.4,30.18,SSE,153,5.0,5.8,26,0.00,,,-99.99,FreeWX-Wi 1.01,2013-05-05 02:28:00,
2013-05-04 22:33:00,64.2,27.7,30.18,SSE,153,5.0,6.3,25,0.00,,,-99.99,FreeWX-Wi 1.01,2013-05-05 02:33:00,
2013-05-04 22:38:00,64.8,27.1,30.18,SSE,153,5.0,5.4,24,0.00,,,-99.99,FreeWX-Wi 1.01,2013-05-05 02:38:00,
2013-05-04 22:43:00,64.6,28.0,30.18,SSE,152,5.0,5.8,25,0.00,,,-99.99,FreeWX-Wi 1.01,2013-05-05 02:43:00,
2013-05-04 22:48:00,63.9,28.2,30.18,SSE,152,4.0,5.4,26,0.00,,,-99.99,FreeWX-Wi 1.01,2013-05-05 02:48:00,
2013-05-04 22:53:00,63.5,27.1,30.18,SSE,152,4.0,4.5,25,0.00,,,-99.99,FreeWX-Wi 1.01,2013-05-05 02:53:00,
2013-05-04 22:58:00,63.3,30.6,30.18,SSE,158,4.0,6.3,29,0.00,,,-99.99,FreeWX-Wi 1.01,2013-05-05 02:58:00,
2013-05-04 23:03:00,61.7,33.1,30.18,South,174,4.0,4.0,34,0.00,,,-99.99,FreeWX-Wi 1.01,2013-05-05 03:03:00,
2013-05-04 23:08:00,60.1,33.8,30.18,SSW,192,3.0,0.0,37,0.00,,,-99.99,FreeWX-Wi 1.01,2013-05-05 03:08:00,
2013-05-04 23:13:00,59.2,32.9,30.18,SSW,210,2.0,0.0,37,0.00,,,-99.99,FreeWX-Wi 1.01,2013-05-05 03:13:00,
2013-05-04 23:18:00,58.5,32.9,30.18,SW,224,1.0,0.0,38,0.00,,,-99.99,FreeWX-Wi 1.01,2013-05-05 03:18:00,
2013-05-04 23:23:00,57.7,34.2,30.18,North,-999,0.0,0.0,41,0.00,,,-99.99,FreeWX-Wi 1.01,2013-05-05 03:23:00,
2013-05-04 23:28:00,57.2,33.8,30.18,North,-999,0.0,3.6,41,0.00,,,-99.99,FreeWX-Wi 1.01,2013-05-05 03:28:00,
2013-05-04 23:33:00,56.7,30.7,30.18,North,-999,0.0,5.4,37,0.00,,,-99.99,FreeWX-Wi 1.01,2013-05-05 03:33:00,
2013-05-04 23:38:00,57.7,30.9,30.18,SW,220,1.0,6.3,36,0.00,,,-99.99,FreeWX-Wi 1.01,2013-05-05 03:38:00,
2013-05-04 23:43:00,59.2,31.5,30.18,SSW,212,2.0,7.6,35,0.00,,,-99.99,FreeWX-Wi 1.01,2013-05-05 03:43:00,
2013-05-04 23:48:00,60.8,32.2,30.18,SSW,198,3.0,11.0,34,0.00,,,-99.99,FreeWX-Wi 1.01,2013-05-05 03:48:00,
2013-05-04 23:53:00,61.3,31.3,30.18,South,185,4.0,10.5,32,0.00,,,-99.99,FreeWX-Wi 1.01,2013-05-05 03:53:00,
2013-05-04 23:58:00,61.3,31.3,30.18,South,176,5.0,7.6,32,0.00,,,-99.99,FreeWX-Wi 1.01,2013-05-05 03:58:00,